Miscellaneous Local Product
Issued by NWS North Platte, NE

Home | Current Version | Previous Version | Text Only | Print | Product List | Glossary On
Versions: 1 2 3 4 5 6 7 8 9 10 11 12 13 14 15 16 17 18 19 20 21 22 23 24 25 26 27 28 29 30 31 32 33 34 35 36 37 38 39 40 41 42 43 44 45 46 47 48 49 50
582
AXUS43 KLBF 172310
MISLBF


WESTERN AND NORTH CENTRAL NEBRASKA HOURLY WEATHER ROUNDUP
NATIONAL WEATHER SERVICE NORTH PLATTE NE
500 PM CST WED JAN 17 2018

NOTE: "FAIR" INDICATES FEW OR NO CLOUDS BELOW 12,000 FEET WITH NO
SIGNIFICANT WEATHER AND/OR OBSTRUCTIONS TO VISIBILITY.

NOTE: STATIONS NOT REPORTING VARIABLES SUCH AS SKY/WEATHER OR
PRESSURE ARE PROVIDED BY RAWS AND APRS NETWORKS AND ARE NOT UNDER
NATIONAL WEATHER SERVICE QUALITY CONTROL.

...OBSERVATIONS IN AND NEAR THE EASTERN PANHANDLE OF NEBRASKA...

CITY           SKY/WX    TMP DP  RH WIND       PRES   REMARKS
GORDON         FAIR      40  22  47 W6        30.23S
CRESCENT LAKE    N/A     38  21  51 N6          N/A  WCI  33
$$

...OBSERVATIONS IN NORTHERN NEBRASKA AND FAR SOUTHERN SOUTH DAKOTA...

CITY           SKY/WX    TMP DP  RH WIND       PRES   REMARKS
AINSWORTH      FAIR      39  24  55 W9        30.23R WCI  32
O`NEILL        FAIR      34  21  60 SW5       30.24R WCI  29
THEDFORD       FAIR      42  24  47 W6        30.25R
ALBION         CLEAR     32  20  62 S8        30.28S WCI  25
VALENTINE NWR    N/A     42  18  38 NW10        N/A
HALSEY           N/A     46  16  29 W5          N/A
BUTTE            N/A     34  23  64 W9          N/A  WCI  27
CHAMBERS         N/A     35  16  46 CALM        N/A
EWING            N/A     35  22  58 SW7         N/A  WCI  29
$$

...OBSERVATIONS IN SOUTHWEST NEBRASKA AND FAR NORTHEAST COLORADO...

CITY           SKY/WX    TMP DP  RH WIND       PRES   REMARKS
WRAY           FAIR      52  10  19 NW8       30.24S
HOLYOKE        FAIR      46  18  31 N12       30.25R
OGALLALA       FAIR      42  21  43 NW7       30.26R
LEXINGTON      FAIR      37  19  47 S7        30.28F WCI  31
STAPLETON        N/A     37  22  54 CALM        N/A
GOTHENBURG       N/A     40  18  40 S3          N/A
CALLAWAY         N/A     36  22  56 SW8         N/A  WCI  30
$$

...OBSERVATIONS IN CENTRAL LINCOLN COUNTY AREA...

CITY           SKY/WX    TMP DP  RH WIND       PRES   REMARKS
N.P. DOWNTOWN    N/A     40  23  50 CALM        N/A
N.P. SOUTHEAST   N/A     39  21  48 SW3         N/A
N.P. HILLCREST   N/A     40  21  46 SW3         N/A
$$

...SOME OBSERVATIONS FROM AROUND THE REGION...

CITY           SKY/WX    TMP DP  RH WIND       PRES   REMARKS
BERTHOUD PASS  FAIR      18   5  57 NW10G16   30.38R WCI   6
SIOUX FALLS    CLEAR     32  18  56 SW3       30.18F
$$




USA.gov is the U.S. government's official web portal to all federal, state and local government web resources and services.